RYR363C LEMI-EGHH

Flight info

Callsign RYR363C
Flight time 2h 0m
Altitude 34000
Route ALT N851 MITOS N608 COMPI Y90 USKAR N863 GIROM DCT GONUP DCT MANAK DCT EPAPU UM184 EKRAS UT507 REVTU UY110 ORIST Y110 THRED
Aircraft B738/M-SDE2E3FGHIRWXY/LB1

Departure

Time 2026-04-26 12:32
Airport Region of Murcia International Airport (LEMI)

Arrival

Time 2026-04-26 14:33
Airport Bournemouth Airport (EGHH)
Time Latitude Longitude Altitude Speed Heading
2026-04-26 12:13 37.80383 -1.13095 655 ft 0 kts 315°
2026-04-26 12:13 37.80387 -1.13078 653 ft 0 kts 315°
2026-04-26 12:25 37.80379 -1.13068 652 ft 4 kts 312°
2026-04-26 12:25 37.80363 -1.13041 651 ft 4 kts 299°
2026-04-26 12:26 37.80353 -1.13011 654 ft 4 kts 276°
2026-04-26 12:26 37.80356 -1.12980 655 ft 4 kts 232°
2026-04-26 12:26 37.80359 -1.12975 653 ft 0 kts 225°
2026-04-26 12:28 37.80355 -1.12980 655 ft 3 kts 224°
2026-04-26 12:28 37.80319 -1.13025 651 ft 11 kts 224°
2026-04-26 12:28 37.80252 -1.13106 651 ft 15 kts 224°
2026-04-26 12:29 37.80164 -1.13136 654 ft 15 kts 141°
2026-04-26 12:29 37.80079 -1.13088 651 ft 15 kts 202°
2026-04-26 12:29 37.79895 -1.13314 651 ft 23 kts 225°
2026-04-26 12:30 37.79773 -1.13471 651 ft 27 kts 225°
2026-04-26 12:30 37.79639 -1.13643 651 ft 28 kts 225°
2026-04-26 12:30 37.79514 -1.13804 651 ft 19 kts 225°
2026-04-26 12:31 37.79388 -1.13671 650 ft 12 kts 93°
2026-04-26 12:31 37.79445 -1.13586 649 ft 20 kts 45°
2026-04-26 12:31 37.79717 -1.13236 651 ft 92 kts 45°
2026-04-26 12:31 37.80321 -1.12465 651 ft 153 kts 46°
2026-04-26 12:32 37.81147 -1.11382 1021 ft 177 kts 48°
2026-04-26 12:32 37.82011 -1.10259 1919 ft 177 kts 46°
2026-04-26 12:32 37.83947 -1.07968 2872 ft 213 kts 44°
2026-04-26 12:33 37.85072 -1.06648 3224 ft 231 kts 44°
2026-04-26 12:33 37.86301 -1.05204 3617 ft 249 kts 44°
2026-04-26 12:33 37.87599 -1.03732 4431 ft 252 kts 38°
2026-04-26 12:33 37.89107 -1.02555 5224 ft 258 kts 30°
2026-04-26 12:34 37.90711 -1.01489 6067 ft 260 kts 30°
2026-04-26 12:34 37.92342 -1.00427 6799 ft 267 kts 29°
2026-04-26 12:34 37.94003 -0.99340 7596 ft 267 kts 29°
2026-04-26 12:34 37.95663 -0.98244 8337 ft 273 kts 30°
2026-04-26 12:35 37.97338 -0.97129 9025 ft 277 kts 30°
2026-04-26 12:35 37.99051 -0.95979 9824 ft 280 kts 31°
2026-04-26 12:35 38.00785 -0.94807 10477 ft 287 kts 31°
2026-04-26 12:35 38.02614 -0.93561 10663 ft 310 kts 30°
2026-04-26 12:36 38.04577 -0.92219 10945 ft 329 kts 30°
2026-04-26 12:36 38.06615 -0.90825 11506 ft 336 kts 30°
2026-04-26 12:36 38.08681 -0.89412 12217 ft 339 kts 30°
2026-04-26 12:36 38.10763 -0.87985 12937 ft 342 kts 30°
2026-04-26 12:37 38.12867 -0.86542 13618 ft 345 kts 30°
2026-04-26 12:37 38.14991 -0.85082 14285 ft 349 kts 30°
2026-04-26 12:37 38.17132 -0.83610 14933 ft 351 kts 30°
2026-04-26 12:37 38.19289 -0.82124 15561 ft 354 kts 30°
2026-04-26 12:38 38.21463 -0.80625 16191 ft 357 kts 30°
2026-04-26 12:38 38.23656 -0.79113 16810 ft 360 kts 30°
2026-04-26 12:38 38.25867 -0.77586 17419 ft 363 kts 30°
2026-04-26 12:38 38.28102 -0.76042 18043 ft 366 kts 30°
2026-04-26 12:39 38.30352 -0.74486 18559 ft 372 kts 30°
2026-04-26 12:39 38.32635 -0.72907 19069 ft 374 kts 30°
2026-04-26 12:39 38.34929 -0.71318 19626 ft 376 kts 30°
2026-04-26 12:39 38.37233 -0.69723 20171 ft 378 kts 30°
2026-04-26 12:40 38.39551 -0.68116 20690 ft 380 kts 30°
2026-04-26 12:40 38.41884 -0.66497 21206 ft 383 kts 30°
2026-04-26 12:40 38.44231 -0.64867 21713 ft 385 kts 30°
2026-04-26 12:40 38.46593 -0.63224 22209 ft 388 kts 30°
2026-04-26 12:41 38.48971 -0.61571 22698 ft 390 kts 30°
2026-04-26 12:41 38.51363 -0.59906 23188 ft 393 kts 30°
2026-04-26 12:41 38.53771 -0.58228 23664 ft 396 kts 31°
2026-04-26 12:41 38.56196 -0.56537 24059 ft 398 kts 31°
2026-04-26 12:42 38.58636 -0.54835 24431 ft 401 kts 31°
2026-04-26 12:42 38.61095 -0.53118 24779 ft 404 kts 31°
2026-04-26 12:42 38.63572 -0.51387 25126 ft 407 kts 31°
2026-04-26 12:42 38.66066 -0.49642 25472 ft 410 kts 31°
2026-04-26 12:43 38.68576 -0.47886 25780 ft 414 kts 31°
2026-04-26 12:43 38.71116 -0.46106 26103 ft 418 kts 31°
2026-04-26 12:43 38.73673 -0.44314 26461 ft 420 kts 31°
2026-04-26 12:43 38.76244 -0.42510 26804 ft 423 kts 31°
2026-04-26 12:44 38.78832 -0.40693 27115 ft 426 kts 31°
2026-04-26 12:44 38.81439 -0.38861 27433 ft 429 kts 31°
2026-04-26 12:44 38.84026 -0.37042 27745 ft 431 kts 31°
2026-04-26 12:44 38.86664 -0.35185 28068 ft 433 kts 31°
2026-04-26 12:45 38.89312 -0.33319 28366 ft 435 kts 31°
2026-04-26 12:45 38.91979 -0.31437 28622 ft 439 kts 31°
2026-04-26 12:45 38.94704 -0.29514 28909 ft 442 kts 31°
2026-04-26 12:45 38.97373 -0.27629 29182 ft 445 kts 31°
2026-04-26 12:46 39.00097 -0.25704 29486 ft 447 kts 31°
2026-04-26 12:46 39.02829 -0.23770 29760 ft 449 kts 31°
2026-04-26 12:46 39.05577 -0.21824 30021 ft 452 kts 31°
2026-04-26 12:46 39.08340 -0.19866 30267 ft 455 kts 31°
2026-04-26 12:47 39.11115 -0.17896 30492 ft 456 kts 31°
2026-04-26 12:47 39.13897 -0.15921 30776 ft 456 kts 31°
2026-04-26 12:47 39.16669 -0.13952 31138 ft 454 kts 31°
2026-04-26 12:47 39.19437 -0.11984 31387 ft 455 kts 31°
2026-04-26 12:48 39.22204 -0.10013 31603 ft 456 kts 31°
2026-04-26 12:48 39.24989 -0.08027 31866 ft 456 kts 31°
2026-04-26 12:48 39.27760 -0.06048 32212 ft 454 kts 31°
2026-04-26 12:48 39.30518 -0.04079 32569 ft 452 kts 31°
2026-04-26 12:49 39.33265 -0.02117 32881 ft 451 kts 30°
2026-04-26 12:49 39.36093 -0.00359 33123 ft 453 kts 22°
2026-04-26 12:49 39.39099 0.00860 33426 ft 452 kts 17°
2026-04-26 12:49 39.42129 0.01945 33722 ft 451 kts 17°
2026-04-26 12:50 39.45159 0.03007 33984 ft 451 kts 17°
2026-04-26 12:50 39.48179 0.04074 34171 ft 452 kts 17°
2026-04-26 12:50 39.51223 0.05168 34151 ft 456 kts 17°
2026-04-26 12:51 39.57367 0.07421 34173 ft 461 kts 17°
2026-04-26 12:51 39.63549 0.09716 34165 ft 463 kts 18°
2026-04-26 12:52 39.69740 0.12021 34155 ft 463 kts 18°
2026-04-26 12:52 39.75929 0.14327 34160 ft 462 kts 18°
2026-04-26 12:53 39.82106 0.16632 34148 ft 461 kts 17°
2026-04-26 12:53 39.88265 0.18931 34156 ft 460 kts 18°
2026-04-26 12:54 39.94403 0.21234 34157 ft 458 kts 17°
2026-04-26 12:54 40.00530 0.23534 34159 ft 458 kts 18°
2026-04-26 12:55 40.06647 0.25830 34163 ft 457 kts 17°
2026-04-26 12:55 40.12713 0.28109 34175 ft 456 kts 17°
2026-04-26 12:56 40.18851 0.30420 34181 ft 456 kts 17°
2026-04-26 12:56 40.24937 0.32717 34173 ft 455 kts 18°
2026-04-26 12:57 40.31025 0.35019 34166 ft 455 kts 17°
2026-04-26 12:57 40.37113 0.37328 34168 ft 456 kts 17°
2026-04-26 12:58 40.46215 0.40796 34162 ft 456 kts 17°
2026-04-26 12:58 40.52315 0.43126 34158 ft 457 kts 17°
2026-04-26 12:59 40.58421 0.45462 34161 ft 457 kts 17°
2026-04-26 12:59 40.64534 0.47805 34156 ft 458 kts 17°
2026-04-26 13:00 40.70654 0.50155 34161 ft 458 kts 17°
2026-04-26 13:00 40.76779 0.52512 34158 ft 459 kts 17°
2026-04-26 13:01 40.82910 0.54875 34152 ft 459 kts 17°
2026-04-26 13:01 40.89043 0.57244 34148 ft 459 kts 17°
2026-04-26 13:02 40.95171 0.59615 34137 ft 460 kts 16°
2026-04-26 13:02 41.01323 0.61999 34150 ft 460 kts 16°
2026-04-26 13:03 41.07478 0.64392 34150 ft 461 kts 16°
2026-04-26 13:03 41.13637 0.66791 34148 ft 462 kts 16°
2026-04-26 13:04 41.19826 0.69198 34145 ft 463 kts 16°
2026-04-26 13:04 41.26022 0.71611 34140 ft 464 kts 16°
2026-04-26 13:05 41.32189 0.74020 34132 ft 465 kts 16°
2026-04-26 13:05 41.38408 0.76455 34144 ft 466 kts 15°
2026-04-26 13:06 41.44638 0.78896 34132 ft 467 kts 15°
2026-04-26 13:06 41.50877 0.81348 34138 ft 468 kts 15°
2026-04-26 13:07 41.57121 0.83808 34146 ft 468 kts 15°
2026-04-26 13:07 41.63361 0.86267 34139 ft 467 kts 15°
2026-04-26 13:08 41.69596 0.88733 34135 ft 467 kts 15°
2026-04-26 13:08 41.75823 0.91202 34137 ft 466 kts 15°
2026-04-26 13:09 41.82047 0.93676 34133 ft 466 kts 15°
2026-04-26 13:09 41.88279 0.96151 34133 ft 466 kts 15°
2026-04-26 13:10 41.94503 0.98632 34135 ft 467 kts 15°
2026-04-26 13:10 42.00728 1.01120 34135 ft 466 kts 15°
2026-04-26 13:11 42.06940 1.03606 34132 ft 465 kts 15°
2026-04-26 13:11 42.13164 1.05942 34132 ft 463 kts
2026-04-26 13:12 42.19548 1.06214 34175 ft 459 kts 353°
2026-04-26 13:12 42.25889 1.05403 34161 ft 457 kts 353°
2026-04-26 13:13 42.31159 1.04763 34154 ft 457 kts 354°
2026-04-26 13:13 42.37489 1.04060 34155 ft 456 kts 354°
2026-04-26 13:14 42.43801 1.03368 34171 ft 454 kts 354°
2026-04-26 13:14 42.50102 1.02682 34178 ft 454 kts 354°
2026-04-26 13:15 42.56402 1.02000 34183 ft 454 kts 354°
2026-04-26 13:15 42.62695 1.01317 34194 ft 453 kts 354°
2026-04-26 13:16 42.68978 1.00631 34192 ft 453 kts 354°
2026-04-26 13:16 42.75257 0.99945 34195 ft 452 kts 354°
2026-04-26 13:17 42.84489 0.97481 34186 ft 451 kts 344°
2026-04-26 13:18 42.93594 0.94191 34187 ft 451 kts 345°
2026-04-26 13:19 43.02723 0.91009 34188 ft 451 kts 345°
2026-04-26 13:19 43.08767 0.88918 34179 ft 451 kts 345°
2026-04-26 13:20 43.14842 0.86813 34184 ft 450 kts 345°
2026-04-26 13:20 43.20952 0.84690 34172 ft 450 kts 345°
2026-04-26 13:21 43.27013 0.82579 34185 ft 449 kts 346°
2026-04-26 13:21 43.33057 0.80469 34177 ft 448 kts 346°
2026-04-26 13:22 43.39099 0.78356 34171 ft 448 kts 345°
2026-04-26 13:22 43.45091 0.76252 34182 ft 447 kts 345°
2026-04-26 13:23 43.50913 0.73314 34176 ft 446 kts 337°
2026-04-26 13:23 43.56585 0.69875 34174 ft 445 kts 336°
2026-04-26 13:24 43.62248 0.66437 34179 ft 444 kts 337°
2026-04-26 13:24 43.67928 0.63044 34170 ft 444 kts 337°
2026-04-26 13:25 43.73598 0.59682 34172 ft 444 kts 338°
2026-04-26 13:25 43.79267 0.56321 34171 ft 443 kts 338°
2026-04-26 13:26 43.84928 0.52957 34177 ft 442 kts 338°
2026-04-26 13:26 43.90582 0.49589 34174 ft 442 kts 338°
2026-04-26 13:27 43.96231 0.46216 34178 ft 442 kts 338°
2026-04-26 13:27 44.01873 0.42840 34180 ft 441 kts 338°
2026-04-26 13:28 44.07508 0.39462 34185 ft 441 kts 337°
2026-04-26 13:28 44.13136 0.36082 34176 ft 440 kts 337°
2026-04-26 13:29 44.18751 0.32701 34180 ft 440 kts 337°
2026-04-26 13:29 44.24371 0.29311 34180 ft 440 kts 337°
2026-04-26 13:30 44.29993 0.25912 34173 ft 440 kts 337°
2026-04-26 13:30 44.35617 0.22505 34180 ft 441 kts 337°
2026-04-26 13:31 44.41207 0.19112 34177 ft 441 kts 337°
2026-04-26 13:31 44.46837 0.15687 34178 ft 441 kts 337°
2026-04-26 13:32 44.52465 0.12255 34182 ft 441 kts 337°
2026-04-26 13:32 44.58128 0.08796 34180 ft 441 kts 337°
2026-04-26 13:33 44.63713 0.05377 34178 ft 441 kts 336°
2026-04-26 13:33 44.69331 0.01930 34174 ft 440 kts 336°
2026-04-26 13:34 44.74942 -0.01520 34168 ft 440 kts 336°
2026-04-26 13:34 44.80547 -0.04973 34180 ft 440 kts 336°
2026-04-26 13:35 44.86159 -0.08438 34185 ft 440 kts 336°
2026-04-26 13:35 44.91775 -0.11913 34184 ft 441 kts 336°
2026-04-26 13:36 44.97397 -0.15399 34180 ft 441 kts 336°
2026-04-26 13:36 45.03023 -0.18896 34189 ft 442 kts 336°
2026-04-26 13:37 45.08651 -0.22399 34185 ft 442 kts 336°
2026-04-26 13:37 45.14280 -0.25916 34188 ft 441 kts 336°
2026-04-26 13:38 45.19899 -0.29430 34198 ft 441 kts 336°
2026-04-26 13:38 45.25514 -0.32948 34194 ft 441 kts 336°
2026-04-26 13:39 45.31124 -0.36472 34197 ft 441 kts 336°
2026-04-26 13:39 45.36727 -0.40000 34190 ft 440 kts 335°
2026-04-26 13:40 45.42327 -0.43532 34195 ft 440 kts 335°
2026-04-26 13:40 45.47923 -0.47071 34193 ft 440 kts 335°
2026-04-26 13:41 45.53517 -0.50616 34190 ft 440 kts 335°
2026-04-26 13:41 45.59107 -0.54166 34191 ft 440 kts 335°
2026-04-26 13:42 45.64695 -0.57724 34185 ft 440 kts 335°
2026-04-26 13:42 45.70250 -0.61268 34189 ft 439 kts 335°
2026-04-26 13:43 45.75833 -0.64836 34194 ft 439 kts 335°
2026-04-26 13:43 45.81451 -0.68435 34194 ft 439 kts 335°
2026-04-26 13:44 45.86997 -0.71996 34190 ft 440 kts 335°
2026-04-26 13:44 45.92579 -0.75588 34200 ft 440 kts 335°
2026-04-26 13:45 45.98161 -0.79188 34194 ft 440 kts 334°
2026-04-26 13:45 46.03748 -0.82800 34193 ft 440 kts 334°
2026-04-26 13:46 46.09339 -0.86422 34185 ft 441 kts 334°
2026-04-26 13:46 46.14940 -0.90059 34191 ft 442 kts 334°
2026-04-26 13:47 46.20561 -0.93682 34185 ft 443 kts 336°
2026-04-26 13:47 46.26546 -0.95968 34210 ft 447 kts 346°
2026-04-26 13:48 46.32647 -0.97747 34198 ft 447 kts 346°
2026-04-26 13:48 46.38748 -0.99556 34205 ft 448 kts 346°
2026-04-26 13:49 46.44839 -1.01410 34182 ft 448 kts 345°
2026-04-26 13:49 46.50935 -1.03288 34200 ft 448 kts 345°
2026-04-26 13:50 46.57031 -1.05173 34203 ft 448 kts 345°
2026-04-26 13:50 46.63130 -1.07062 34200 ft 448 kts 345°
2026-04-26 13:51 46.69234 -1.08958 34199 ft 449 kts 345°
2026-04-26 13:51 46.75343 -1.10858 34206 ft 449 kts 345°
2026-04-26 13:52 46.81456 -1.12763 34199 ft 449 kts 345°
2026-04-26 13:52 46.87571 -1.14674 34200 ft 449 kts 345°
2026-04-26 13:53 46.93687 -1.16589 34211 ft 449 kts 345°
2026-04-26 13:53 46.99803 -1.18509 34186 ft 450 kts 345°
2026-04-26 13:54 47.05925 -1.20436 34187 ft 450 kts 345°
2026-04-26 13:54 47.12052 -1.22369 34186 ft 450 kts 345°
2026-04-26 13:55 47.20219 -1.24952 34179 ft 452 kts 345°
2026-04-26 13:56 47.30468 -1.28204 34185 ft 455 kts 345°
2026-04-26 13:56 47.36680 -1.30184 34182 ft 458 kts 345°
2026-04-26 13:57 47.41866 -1.31839 34176 ft 459 kts 345°
2026-04-26 13:57 47.48127 -1.33841 34183 ft 460 kts 345°
2026-04-26 13:58 47.54390 -1.35849 34181 ft 461 kts 345°
2026-04-26 13:58 47.60657 -1.37863 34191 ft 461 kts 344°
2026-04-26 13:59 47.66924 -1.39883 34185 ft 461 kts 344°
2026-04-26 13:59 47.73237 -1.41579 34182 ft 464 kts 353°
2026-04-26 14:00 47.86148 -1.42361 34196 ft 464 kts 354°
2026-04-26 14:01 47.92588 -1.42822 34202 ft 463 kts 353°
2026-04-26 14:01 47.99022 -1.43319 34209 ft 462 kts 353°
2026-04-26 14:02 48.05443 -1.43804 34204 ft 462 kts 354°
2026-04-26 14:02 48.11821 -1.44257 34206 ft 462 kts 354°
2026-04-26 14:03 48.18241 -1.44709 34201 ft 462 kts 354°
2026-04-26 14:03 48.24658 -1.45166 34213 ft 462 kts 354°
2026-04-26 14:04 48.31078 -1.45626 34202 ft 462 kts 354°
2026-04-26 14:04 48.37501 -1.46088 34200 ft 462 kts 354°
2026-04-26 14:05 48.43924 -1.46551 34213 ft 462 kts 354°
2026-04-26 14:05 48.50356 -1.47016 34205 ft 463 kts 354°
2026-04-26 14:06 48.56792 -1.47483 34207 ft 463 kts 354°
2026-04-26 14:06 48.63235 -1.47950 34213 ft 463 kts 354°
2026-04-26 14:07 48.69676 -1.48419 34209 ft 463 kts 354°
2026-04-26 14:07 48.76119 -1.48890 34219 ft 464 kts 354°
2026-04-26 14:07 48.79348 -1.49126 33812 ft 467 kts 354°
2026-04-26 14:08 48.82581 -1.49363 33234 ft 463 kts 354°
2026-04-26 14:08 48.85762 -1.49596 32581 ft 462 kts 354°
2026-04-26 14:08 48.88966 -1.49835 32078 ft 458 kts 353°
2026-04-26 14:08 48.92149 -1.50400 31567 ft 452 kts 346°
2026-04-26 14:09 48.95172 -1.51330 31092 ft 447 kts 345°
2026-04-26 14:09 48.98195 -1.52359 30626 ft 443 kts 344°
2026-04-26 14:09 49.01194 -1.53401 30136 ft 440 kts 344°
2026-04-26 14:09 49.04173 -1.54422 29593 ft 437 kts 344°
2026-04-26 14:10 49.07135 -1.55416 29127 ft 433 kts 345°
2026-04-26 14:10 49.10059 -1.56380 28628 ft 429 kts 345°
2026-04-26 14:10 49.12967 -1.57328 28149 ft 425 kts 345°
2026-04-26 14:10 49.15851 -1.58263 27670 ft 422 kts 345°
2026-04-26 14:11 49.21557 -1.60110 26743 ft 415 kts 345°
2026-04-26 14:11 49.24373 -1.61025 26286 ft 412 kts 345°
2026-04-26 14:11 49.27170 -1.61934 25842 ft 410 kts 345°
2026-04-26 14:12 49.29951 -1.62840 25392 ft 408 kts 345°
2026-04-26 14:12 49.32721 -1.63744 24936 ft 406 kts 345°
2026-04-26 14:12 49.35479 -1.64645 24496 ft 404 kts 345°
2026-04-26 14:12 49.38229 -1.65544 24027 ft 404 kts 345°
2026-04-26 14:13 49.43675 -1.67328 23031 ft 401 kts 345°
2026-04-26 14:13 49.46398 -1.68220 22561 ft 398 kts 344°
2026-04-26 14:13 49.49094 -1.69104 22108 ft 394 kts 344°
2026-04-26 14:14 49.51768 -1.69984 21670 ft 391 kts 344°
2026-04-26 14:14 49.54426 -1.70859 21224 ft 388 kts 344°
2026-04-26 14:14 49.57059 -1.71726 20786 ft 385 kts 344°
2026-04-26 14:14 49.59672 -1.72587 20353 ft 383 kts 344°
2026-04-26 14:15 49.62268 -1.73395 19930 ft 380 kts 345°
2026-04-26 14:15 49.64866 -1.74156 19494 ft 378 kts 345°
2026-04-26 14:15 49.67444 -1.74898 19074 ft 376 kts 345°
2026-04-26 14:15 49.70006 -1.75637 18653 ft 373 kts 345°
2026-04-26 14:16 49.72558 -1.76379 18161 ft 371 kts 345°
2026-04-26 14:16 49.75090 -1.77121 17667 ft 370 kts 345°
2026-04-26 14:16 49.77615 -1.77865 17144 ft 369 kts 346°
2026-04-26 14:16 49.80135 -1.78608 16672 ft 367 kts 346°
2026-04-26 14:17 49.82599 -1.79336 16248 ft 364 kts 346°
2026-04-26 14:17 49.85081 -1.80070 15800 ft 362 kts 346°
2026-04-26 14:17 49.87554 -1.80802 15313 ft 362 kts 346°
2026-04-26 14:17 49.90026 -1.81536 14805 ft 362 kts 347°
2026-04-26 14:18 49.92504 -1.82271 14278 ft 363 kts 347°
2026-04-26 14:18 49.94985 -1.83008 13728 ft 363 kts 347°
2026-04-26 14:18 49.97470 -1.83747 13156 ft 364 kts 347°
2026-04-26 14:18 49.99970 -1.84384 12587 ft 365 kts 354°
2026-04-26 14:19 50.02510 -1.84311 12028 ft 366 kts
2026-04-26 14:19 50.05028 -1.83906 11481 ft 360 kts
2026-04-26 14:19 50.07494 -1.83507 10928 ft 351 kts
2026-04-26 14:19 50.09903 -1.83151 10397 ft 344 kts
2026-04-26 14:20 50.12266 -1.82822 9840 ft 337 kts
2026-04-26 14:20 50.14583 -1.82708 9328 ft 330 kts 353°
2026-04-26 14:20 50.16828 -1.83317 9023 ft 325 kts 348°
2026-04-26 14:20 50.19001 -1.84028 8756 ft 313 kts 347°
2026-04-26 14:21 50.21075 -1.84843 8487 ft 302 kts 342°
2026-04-26 14:21 50.23040 -1.85851 8233 ft 293 kts 341°
2026-04-26 14:21 50.24948 -1.86868 7976 ft 287 kts 340°
2026-04-26 14:21 50.26799 -1.87863 7735 ft 283 kts 340°
2026-04-26 14:22 50.28655 -1.88866 7484 ft 281 kts 340°
2026-04-26 14:22 50.30493 -1.89864 7239 ft 278 kts 340°
2026-04-26 14:22 50.32316 -1.90857 7005 ft 276 kts 340°
2026-04-26 14:22 50.34127 -1.91843 6766 ft 275 kts 340°
2026-04-26 14:23 50.35928 -1.92823 6515 ft 273 kts 340°
2026-04-26 14:23 50.37722 -1.93803 6261 ft 273 kts 340°
2026-04-26 14:23 50.39511 -1.94786 6025 ft 271 kts 340°
2026-04-26 14:23 50.41289 -1.95766 5834 ft 271 kts 340°
2026-04-26 14:24 50.43080 -1.96752 5658 ft 274 kts 340°
2026-04-26 14:24 50.44886 -1.97747 5473 ft 274 kts 340°
2026-04-26 14:24 50.46669 -1.98729 5280 ft 269 kts 340°
2026-04-26 14:24 50.48418 -1.99697 5082 ft 264 kts 340°
2026-04-26 14:25 50.50138 -2.00650 4885 ft 260 kts 340°
2026-04-26 14:25 50.51827 -2.01590 4676 ft 255 kts 340°
2026-04-26 14:25 50.53488 -2.02519 4488 ft 251 kts 340°
2026-04-26 14:25 50.55120 -2.03438 4293 ft 247 kts 340°
2026-04-26 14:26 50.56727 -2.04346 4096 ft 244 kts 340°
2026-04-26 14:26 50.58299 -2.05240 3937 ft 236 kts 340°
2026-04-26 14:26 50.59815 -2.06105 3762 ft 228 kts 340°
2026-04-26 14:26 50.61290 -2.06952 3579 ft 221 kts 340°
2026-04-26 14:27 50.62700 -2.07766 3282 ft 212 kts 340°
2026-04-26 14:27 50.64054 -2.08555 2905 ft 210 kts 340°
2026-04-26 14:27 50.65407 -2.09369 2627 ft 204 kts 340°
2026-04-26 14:27 50.66705 -2.10160 2528 ft 198 kts 345°
2026-04-26 14:28 50.68035 -2.10503 2485 ft 192 kts 357°
2026-04-26 14:28 50.69354 -2.10622 2485 ft 189 kts
2026-04-26 14:28 50.70662 -2.10392 2492 ft 188 kts 10°
2026-04-26 14:28 50.71964 -2.10096 2509 ft 191 kts 11°
2026-04-26 14:29 50.73257 -2.09568 2462 ft 192 kts 31°
2026-04-26 14:29 50.74297 -2.08318 2458 ft 189 kts 62°
2026-04-26 14:29 50.74543 -2.06410 2510 ft 176 kts 94°
2026-04-26 14:29 50.74637 -2.04472 2481 ft 179 kts 77°
2026-04-26 14:30 50.75016 -2.02554 2259 ft 184 kts 77°
2026-04-26 14:30 50.75315 -2.00598 2036 ft 183 kts 79°
2026-04-26 14:30 50.75624 -1.98647 1772 ft 182 kts 78°
2026-04-26 14:30 50.75937 -1.96745 1545 ft 174 kts 78°
2026-04-26 14:31 50.76234 -1.94967 1378 ft 156 kts 78°
2026-04-26 14:31 50.76523 -1.93371 1094 ft 150 kts 77°
2026-04-26 14:31 50.76788 -1.91834 930 ft 144 kts 79°
2026-04-26 14:31 50.77041 -1.90288 728 ft 149 kts 79°
2026-04-26 14:32 50.77291 -1.88698 532 ft 148 kts 80°
2026-04-26 14:32 50.77531 -1.87127 307 ft 145 kts 80°
2026-04-26 14:32 50.77789 -1.85584 108 ft 143 kts 79°
2026-04-26 14:32 50.78021 -1.84164 43 ft 111 kts 75°
2026-04-26 14:33 50.78157 -1.83358 43 ft 41 kts 75°
2026-04-26 14:33 50.78181 -1.83050 41 ft 16 kts 146°
2026-04-26 14:33 50.78122 -1.83081 42 ft 9 kts 234°
2026-04-26 14:33 50.78089 -1.83169 40 ft 10 kts 236°
2026-04-26 14:34 50.78053 -1.83256 42 ft 9 kts 242°
2026-04-26 14:34 50.78023 -1.83354 40 ft 11 kts 244°
2026-04-26 14:34 50.77969 -1.83471 41 ft 15 kts 213°
2026-04-26 14:34 50.77871 -1.83477 40 ft 7 kts 172°
2026-04-26 14:35 50.77824 -1.83470 42 ft 7 kts 176°
2026-04-26 14:35 50.77767 -1.83465 42 ft 10 kts 178°
2026-04-26 14:35 50.77727 -1.83452 42 ft 2 kts 119°
2026-04-26 14:35 50.77726 -1.83408 41 ft 6 kts 89°
2026-04-26 14:36 50.77728 -1.83370 41 ft 1 kts 86°
2026-04-26 14:36 50.77728 -1.83369 41 ft 0 kts 86°